OpenBCM V1.07b12 (Linux)

Packet Radio Mailbox

DB0FHN

[JN59NK Nuernberg]

 Login: GUEST





  
CX7BY  > KEPS     18.04.03 05:17l 207 Lines 5444 Bytes #999 (0) @ AMSAT
BID : ORB03107.W
Read: DB0FHN GUEST
Subj: Orbital Elements  03107.WEATHER
Path: DB0FHN<DB0RGB<DB0MRW<OK0PKL<OK0PCC<OK0NAG<9A0BBS<PP5AQ<HA3PG<ON0BEL<
      CX2ACB<CX7BY
Sent: 030418/0304Z @:CX7BY.MVD.URY.SA #:36333 [Montevideo] FBB $:ORB03107.W
From: CX7BY@CX7BY.MVD.URY.SA
To  : KEPS@AMSAT


HR AMSAT ORBITAL ELEMENTS FOR WEATHER SATELLITES
FROM WA5QGD FORT WORTH,TX April 17, 2003
SEND SUBSCRIBE/UNSUBSCRIBE TO majordomo@amsat.org ONLY
BID: ORB03107.W
TO ALL RADIO AMATEURS BT

Satellite: NOAA-10
Catalog number: 16969
Epoch time:      03107.46169111
Element set:     739
Inclination:       98.7358 deg
RA of node:       101.4809 deg
Eccentricity:    0.0011627
Arg of perigee:   280.8336 deg
Mean anomaly:      79.1538 deg
Mean motion:   14.27089054 rev/day
Decay rate:       1.26e-06 rev/day^2
Epoch rev:           86216
Checksum:              316

Satellite: NOAA-11
Catalog number: 19531
Epoch time:      03107.44223867
Element set:     576
Inclination:       98.8922 deg
RA of node:       188.6078 deg
Eccentricity:    0.0012219
Arg of perigee:    42.4954 deg
Mean anomaly:     317.7161 deg
Mean motion:   14.14565650 rev/day
Decay rate:       1.30e-06 rev/day^2
Epoch rev:           75098
Checksum:              311

Satellite: NOAA-12
Catalog number: 21263
Epoch time:      03107.47728145
Element set:      46
Inclination:       98.6328 deg
RA of node:        96.1614 deg
Eccentricity:    0.0011999
Arg of perigee:   209.9926 deg
Mean anomaly:     150.0567 deg
Mean motion:   14.25123388 rev/day
Decay rate:       2.36e-06 rev/day^2
Epoch rev:           61946
Checksum:              313

Satellite: MET-3/5
Catalog number: 21655
Epoch time:      03107.56434599
Element set:     515
Inclination:       82.5603 deg
RA of node:       357.9004 deg
Eccentricity:    0.0014645
Arg of perigee:    54.4357 deg
Mean anomaly:     305.8130 deg
Mean motion:   13.16982987 rev/day
Decay rate:        5.1e-07 rev/day^2
Epoch rev:           56111
Checksum:              299

Satellite: MET-2/21
Catalog number: 22782
Epoch time:      03107.82404464
Element set:     571
Inclination:       82.5506 deg
RA of node:       168.7092 deg
Eccentricity:    0.0022762
Arg of perigee:   178.5847 deg
Mean anomaly:     181.5392 deg
Mean motion:   13.83536548 rev/day
Decay rate:       1.52e-06 rev/day^2
Epoch rev:           48614
Checksum:              316

Satellite: OKEAN-4
Catalog number: 23317
Epoch time:      03106.94312421
Element set:    0299
Inclination:      082.5367 deg
RA of node:       275.5180 deg
Eccentricity:    0.0021605
Arg of perigee:   220.8451 deg
Mean anomaly:     139.1152 deg
Mean motion:   14.81067879 rev/day
Decay rate:       9.66e-06 rev/day^2
Epoch rev:           45859
Checksum:              306

Satellite: NOAA-14
Catalog number: 23455
Epoch time:      03107.52610865
Element set:     597
Inclination:       99.1856 deg
RA of node:       127.6179 deg
Eccentricity:    0.0010233
Arg of perigee:    68.3759 deg
Mean anomaly:     291.8501 deg
Mean motion:   14.13320178 rev/day
Decay rate:       1.32e-06 rev/day^2
Epoch rev:           42766
Checksum:              304

Satellite: SICH-1
Catalog number: 23657
Epoch time:      03106.98417267
Element set:    0035
Inclination:      082.5290 deg
RA of node:       056.2557 deg
Eccentricity:    0.0023433
Arg of perigee:   201.0967 deg
Mean anomaly:     158.9280 deg
Mean motion:   14.80118078 rev/day
Decay rate:       9.09e-06 rev/day^2
Epoch rev:           41072
Checksum:              295

Satellite: NOAA-15
Catalog number: 25338
Epoch time:      03107.48584350
Element set:      82
Inclination:       98.5475 deg
RA of node:       128.0621 deg
Eccentricity:    0.0011065
Arg of perigee:   143.7622 deg
Mean anomaly:     216.4310 deg
Mean motion:   14.24272715 rev/day
Decay rate:       1.60e-06 rev/day^2
Epoch rev:           25604
Checksum:              267

Satellite: RESURS
Catalog number: 25394
Epoch time:      03107.18706611
Element set:     496
Inclination:       98.6207 deg
RA of node:       184.0229 deg
Eccentricity:    0.0000810
Arg of perigee:   340.3193 deg
Mean anomaly:      19.7954 deg
Mean motion:   14.23899419 rev/day
Decay rate:        6.9e-07 rev/day^2
Epoch rev:           24773
Checksum:              306

Satellite: FENGYUN1
Catalog number: 25730
Epoch time:      03107.91186705
Element set:     814
Inclination:       98.6282 deg
RA of node:       130.1125 deg
Eccentricity:    0.0014075
Arg of perigee:   192.9808 deg
Mean anomaly:     167.1004 deg
Mean motion:   14.11740252 rev/day
Decay rate:       -1.8e-07 rev/day^2
Epoch rev:           20286
Checksum:              265

Satellite: OKEAN-0
Catalog number: 25860
Epoch time:      03106.98176750
Element set:    0081
Inclination:      097.8564 deg
RA of node:       152.6373 deg
Eccentricity:    0.0000662
Arg of perigee:   120.8083 deg
Mean anomaly:     239.3190 deg
Mean motion:   14.72691954 rev/day
Decay rate:       4.00e-06 rev/day^2
Epoch rev:           20138
Checksum:              288

Satellite: NOAA-16
Catalog number: 26536
Epoch time:      03107.26589219
Element set:     293
Inclination:       98.9102 deg
RA of node:        55.1521 deg
Eccentricity:    0.0011148
Arg of perigee:   139.3330 deg
Mean anomaly:     220.8685 deg
Mean motion:   14.11939913 rev/day
Decay rate:       5.06e-06 rev/day^2
Epoch rev:           13229
Checksum:              291

Satellite: NOAA-17
Catalog number: 27453
Epoch time:      03107.49145511
Element set:     377
Inclination:       98.7454 deg
RA of node:       178.3674 deg
Eccentricity:    0.0011867
Arg of perigee:   184.4426 deg
Mean anomaly:     175.6649 deg
Mean motion:   14.23330343 rev/day
Decay rate:       2.21e-06 rev/day^2
Epoch rev:            4220
Checksum:              299



Read previous mail | Read next mail


 17.09.2025 19:42:16lGo back Go up